STARLINK-35836

Last updated on Wed Dec 31 2025 00:02:06 GMT+0000 (Coordinated Universal Time)

1 66571U 25268Q 25364.58335648 .00061922 00000+0 22435-2 0 9997 2 66571 43.0013 17.7307 0001339 278.4898 178.5137 15.27542191 5919
UTC large
Height (km)
Speed (km/s)
/
Latitude / Longitude
Inclination (degrees)
Orbital Period (minutes)
Azimuth
Elevation
Range (km)
Doppler Factor

Next 0 passes for location: London (51.5072 / 0.1276)

Sorry there are no passes over London.